Flag for Germany Weather past 2 weeks in Erkrath, North Rhine-Westphalia, Germany

Now
43 °F

Broken clouds.


Feels Like: 35 °F
Forecast: 35 / 43 °F
Wind: 17 mph from Southwest

Location: Duesseldorf

Current Time: Mar 3, 2015 at 10:39:24 AM

Latest Report: Mar 3, 2015 at 10:20 AM


Visibility: N/A

Pressure: 30.07 "Hg

Humidity: 71%

Dew point: 34 °F

Location of ErkrathLocation

Historic Weather in Erkrath — Graph

°F

Erkrath temperature yesterday

Maximum temperature yesterday: 50 °F (at 1:20 PM)
Minimum temperature yesterday: 37 °F (at 3:50 PM)
Average temperature yesterday: 43 °F

Past Weeks' High & Low Weather Summary

 TemperatureHumidityPressure
High52 °F (Mar 1, 10:50 AM)100% (Feb 17, 6:20 AM)30.77 "Hg (Feb 17, 6:20 AM)
Low28 °F (Feb 28, 4:20 AM)43% (Feb 28, 3:50 PM)29.36 "Hg (Feb 21, 3:50 AM)
Average40 °F81%29.94 "Hg
* Reported Feb 16 9:20 AM — Mar 3 9:20 AM, Erkrath, Weather by CustomWeather, © 2015

Note: Actual official high and low records may vary slightly from our data, if they occured in-between our weather recording intervals... More about our weather records

Advertising

Erkrath weather history for previous 24 hours

 ConditionsComfort  
Time TempWeatherWind HumidityBarometerVisibility
9:20 AM
Tue, Mar 3
41 °FPartly sunny.13 mph76%30.07 "HgN/A
8:50 AM41 °FPartly sunny.15 mph76%30.07 "HgN/A
8:20 AM39 °FBroken clouds.13 mph81%30.07 "HgN/A
7:50 AM37 °FScattered clouds.14 mph81%30.04 "HgN/A
7:20 AM37 °FPassing clouds.13 mph81%30.04 "HgN/A
6:50 AM37 °FPassing clouds.14 mph81%30.04 "HgN/A
6:20 AM37 °FClear.13 mph81%30.04 "Hg10 mi
5:50 AM37 °FClear.14 mph81%30.04 "Hg10 mi
5:20 AM37 °FClear.13 mph81%30.04 "Hg10 mi
4:50 AM37 °FClear.13 mph81%30.04 "Hg10 mi
4:20 AM37 °FClear.15 mph81%30.04 "Hg10 mi
3:50 AM37 °FClear.13 mph81%30.04 "Hg10 mi
3:20 AM36 °FClear.13 mph87%30.04 "Hg10 mi
2:50 AM37 °FClear.13 mph81%30.04 "Hg10 mi
2:20 AM37 °FClear.14 mph75%30.04 "Hg10 mi
1:50 AM37 °FPassing clouds.14 mph75%30.01 "HgN/A
1:20 AM37 °FClear.14 mph75%30.01 "Hg10 mi
12:50 AM39 °FClear.16 mph70%30.01 "Hg10 mi
12:20 AM39 °FClear.14 mph70%29.98 "Hg10 mi
11:50 PM
Mon, Mar 2
39 °FClear.16 mph70%29.98 "Hg10 mi
11:20 PM39 °FClear.12 mph65%29.98 "Hg10 mi
10:50 PM39 °FClear.14 mph65%29.95 "Hg10 mi
10:20 PM39 °FClear.12 mph65%29.95 "Hg10 mi
9:50 PM39 °FClear.13 mph65%29.92 "Hg10 mi
9:20 PM39 °FClear.16 mph70%29.92 "Hg10 mi
8:50 PM39 °FPassing clouds.16 mph70%29.89 "HgN/A
8:20 PM41 °FPassing clouds.15 mph61%29.86 "HgN/A
7:50 PM39 °FClear.10 mph70%29.86 "Hg10 mi
7:20 PM39 °FClear.10 mph75%29.83 "Hg10 mi
6:50 PM39 °FPassing clouds.13 mph75%29.83 "HgN/A
6:20 PM39 °FPassing clouds.14 mph81%29.80 "HgN/A
5:50 PM39 °FScattered showers. Passing clouds.12 mph87%29.80 "HgN/A
5:20 PM39 °FScattered showers. Scattered clouds.13 mph93%29.77 "HgN/A
4:50 PM37 °FScattered showers. Broken clouds.14 mph93%29.77 "HgN/A
4:20 PM37 °FRain showers. Partly sunny.12 mph93%29.74 "HgN/A
3:50 PM37 °FRain showers. Mostly cloudy.20 mph87%29.74 "Hg6 mi
3:20 PM45 °FSprinkles. Broken clouds.22 mph53%29.68 "HgN/A
2:50 PM48 °FScattered showers. Partly sunny.17 mph46%29.68 "HgN/A
2:20 PM48 °FBroken clouds.18 mph46%29.68 "HgN/A
1:50 PM48 °FScattered clouds.18 mph46%29.68 "HgN/A
1:20 PM50 °FScattered clouds.18 mph47%29.68 "HgN/A
12:50 PM48 °FScattered clouds.17 mph46%29.68 "HgN/A
12:20 PM46 °FPassing clouds.17 mph50%29.68 "HgN/A
11:50 AM46 °FPassing clouds.18 mph50%29.68 "HgN/A
11:20 AM46 °FPassing clouds.15 mph50%29.68 "HgN/A
10:50 AM46 °FPassing clouds.17 mph57%29.68 "HgN/A
10:20 AM45 °FPassing clouds.17 mph61%29.68 "HgN/A
Weather by CustomWeather, © 2015

See weather overviewHow to use our weather pages